Regional Weather Roundup
Issued by NWS

Home | Current Version | Previous Version | Text Only | Print | Product List | Glossary Off
Versions: 1 2 3 4 5 6 7 8 9 10 11 12 13 14 15 16 17 18 19 20 21 22 23 24 25 26 27 28 29 30 31 32 33 34 35 36 37 38 39 40 41 42 43 44 45 46 47 48 49 50

000
ASUS43 KLMK 262102
RWRKY
KENTUCKY REGIONAL WEATHER ROUNDUP
NATIONAL WEATHER SERVICE LOUISVILLE KY
500 PM EDT TUE MAY 26 2015

NOTE "FAIR" INDICATES FEW OR NO CLOUDS BELOW 12,000 FEET
WITH NO SIGNIFICANT WEATHER AND/OR OBSTRUCTIONS TO VISIBILITY.

KYZ001>023-026-027-061>063-070>075-262200-
WESTERN AND SOUTH CENTRAL KENTUCKY

CITY           SKY/WX    TMP DP  RH WIND       PRES   REMARKS
PADUCAH        CLOUDY    77  61  57 SW14      29.99S
HENDERSON      PTSUNNY   79  63  57 SW15      29.96S
OWENSBORO      CLOUDY    79  67  66 SW13      29.99R
HOPKINSVILLE   MOSUNNY   80  65  60 SW20      30.00S
BOWLING GREEN  LGT RAIN  71  67  87 S9        30.04R
GLASGOW        NOT AVBL
$$

KYZ024-025-028>034-038-045-046-053-262200-
NORTH CENTRAL KENTUCKY

CITY           SKY/WX    TMP DP  RH WIND       PRES   REMARKS
LOUISVILLE/SDF LGT RAIN  77  68  73 S13       30.01R
LOUISVILLE/LOU CLOUDY    77  68  73 S9G18     30.01R
FORT KNOX      PTSUNNY   71  67  85 S10       30.01R
$$

KYZ035>037-039>044-047>052-055>060-089>105-262200-
NORTHEAST KENTUCKY

CITY           SKY/WX    TMP DP  RH WIND       PRES   REMARKS
LEXINGTON      CLOUDY    82  65  56 S16G28    30.02S
COVINGTON      TSTM      68  66  93 S12G25    30.02R FOG
FRANKFORT      LGT RAIN  76  67  73 SW14G22   30.02R
$$

KYZ054-064>069-076>088-106>120-262200-
SOUTHEAST KENTUCKY

CITY           SKY/WX    TMP DP  RH WIND       PRES   REMARKS
JACKSON        LGT RAIN  81  65  58 VRB6      30.09S
LONDON         MOSUNNY   87  61  41 S13G23    30.07F
SOMERSET       NOT AVBL
MIDDLESBORO    MOSUNNY   83  66  57 SW7       30.11S
MONTICELLO     MOCLDY    84  68  58 S12       30.08S
$$



USA.gov is the U.S. government's official web portal to all federal, state and local government web resources and services.